Data for 09/08/2016

Time Sea-Level Adjusted Pressure Absolute Pressure Temperature Relative Humidity Dew Point   
(mb) (inHg) (mb) (inHg) (C) (F) (%) (C) (F)
00:05 1019 30.09 848 25.04 11.4 52.4 48 0.9 33.6
00:10 1019 30.09 848 25.04 11.6 52.9 48 1 33.8
00:15 1019 30.09 848 25.04 11.7 53 49 1.3 34.4
00:20 1019 30.09 848 25.04 11.7 53 50 1.7 35
00:25 1019 30.09 848 25.04 11.6 52.8 49 1.3 34.4
00:30 1019 30.09 848 25.04 11.7 53 47 0.7 33.2
00:35 1019 30.09 848 25.04 11.9 53.4 50 1.8 35.2
00:40 1019 30.09 848 25.04 11.5 52.8 51 1.9 35.4
00:45 1019 30.09 848 25.04 11.3 52.4 52 1.9 35.5
00:50 1019 30.09 848 25.04 10.8 51.4 54 2 35.6
00:55 1019 30.09 848 25.04 10.5 50.8 54 1.5 34.7
01:00 1019 30.09 848 25.04 10.7 51.3 50 0.6 33.1
01:05 1019 30.09 848 25.04 11.2 52.2 48 0.6 33
01:10 1019 30.09 848 25.04 11.4 52.5 49 1.1 33.9
01:15 1019 30.09 848 25.04 11.1 52 51 1.5 34.7
01:20 1019 30.09 848 25.04 10.9 51.5 51 1.3 34.3
01:25 1019 30.09 848 25.04 10.8 51.5 52 1.5 34.7
01:30 1019 30.09 848 25.04 10.8 51.5 53 1.8 35.2
01:35 1019 30.09 848 25.04 10.8 51.5 51 1.2 34.2
01:40 1019 30.09 848 25.04 10.8 51.4 54 2 35.6
01:45 1019 30.09 848 25.04 10.7 51.2 54 1.7 35
01:50 1019 30.09 848 25.04 10.7 51.3 54 1.8 35.2
01:55 1019 30.09 848 25.04 10.7 51.3 54 1.8 35.2
02:00 1019 30.09 848 25.04 10.8 51.4 54 1.9 35.3
02:05 1019 30.09 848 25.04 10.8 51.5 54 2 35.6
02:10 1019 30.09 848 25.04 10.9 51.5 52 1.5 34.8
02:15 1019 30.09 848 25.04 10.8 51.4 56 2.3 36.2
02:20 1018 30.06 848 25.04 10.5 50.9 54 1.6 34.9
02:25 1018 30.06 848 25.04 10.6 51 55 2 35.6
02:30 1018 30.06 848 25.04 10.6 51 56 2.3 36.1
02:35 1018 30.06 848 25.04 10.5 50.9 53 1.4 34.5
02:40 1018 30.06 848 25.04 10.7 51.3 54 1.9 35.4
02:45 1018 30.06 848 25.04 11 51.7 54 2.1 35.9
02:50 1018 30.06 848 25.04 11.1 52 52 1.6 34.9
02:55 1018 30.06 848 25.04 11.1 52.1 54 2.2 36
03:00 1018 30.06 848 25.04 10.9 51.7 55 2.2 36
03:05 1018 30.06 848 25.04 10.9 51.5 55 2.3 36.1
03:10 1018 30.06 848 25.04 10.9 51.6 56 2.5 36.4
03:15 1018 30.06 848 25.04 10.9 51.6 56 2.5 36.4
03:20 1018 30.06 847 25.01 10.9 51.7 55 2.4 36.3
03:25 1018 30.06 847 25.01 10.6 51.1 57 2.4 36.3
03:30 1018 30.06 848 25.04 10.3 50.6 57 2.2 35.9
03:35 1018 30.06 848 25.04 10.4 50.7 59 2.8 37
03:40 1018 30.06 848 25.04 10.5 50.8 57 2.3 36.1
03:45 1018 30.06 847 25.01 10.7 51.2 57 2.6 36.7
03:50 1018 30.06 847 25.01 10.8 51.5 54 2 35.6
03:55 1018 30.06 847 25.01 10.9 51.7 59 3.4 38
04:00 1018 30.06 847 25.01 10.7 51.3 58 2.8 37.1
04:05 1018 30.06 847 25.01 10.7 51.2 55 2 35.6
04:10 1018 30.06 848 25.04 10.8 51.4 59 3.1 37.6
04:15 1018 30.06 847 25.01 10.8 51.4 57 2.5 36.6
04:20 1018 30.06 847 25.01 10.7 51.2 57 2.5 36.5
04:25 1018 30.06 847 25.01 10.8 51.4 57 2.7 36.9
04:30 1018 30.06 847 25.01 10.7 51.2 60 3.3 38
04:35 1018 30.06 847 25.01 10.5 50.9 60 3 37.4
04:40 1018 30.06 847 25.01 10.5 50.9 59 2.9 37.2
04:45 1018 30.06 847 25.01 10.4 50.7 60 3 37.4
04:50 1018 30.06 847 25.01 10.4 50.8 58 2.6 36.7
04:55 1018 30.06 847 25.01 10.7 51.2 58 2.9 37.1
05:00 1018 30.06 847 25.01 10.6 51.2 59 3 37.4
05:05 1018 30.06 847 25.01 10.5 51 58 2.6 36.7
05:10 1018 30.06 847 25.01 10.6 51 57 2.3 36.2
05:15 1018 30.06 847 25.01 10.6 51.1 57 2.5 36.4
05:20 1018 30.06 847 25.01 10.6 51.1 55 1.9 35.4
05:25 1018 30.06 847 25.01 10.8 51.4 55 2.1 35.8
05:30 1018 30.06 847 25.01 10.8 51.4 55 2.2 36
05:35 1018 30.06 847 25.01 10.6 51.2 56 2.4 36.2
05:40 1018 30.06 847 25.01 10.5 50.8 55 2 35.5
05:45 1018 30.06 847 25.01 10.4 50.8 58 2.7 36.8
05:50 1018 30.06 847 25.01 10.1 50.1 61 2.9 37.2
05:55 1018 30.06 847 25.01 9.9 49.7 61 2.7 36.8
06:00 1018 30.06 847 25.01 9.9 49.8 61 2.7 36.9
06:05 1018 30.06 847 25.01 10 50 61 2.8 37
06:10 1018 30.06 847 25.01 10.1 50.1 60 2.7 36.8
06:15 1018 30.06 847 25.01 10.2 50.3 59 2.5 36.4
06:20 1018 30.06 847 25.01 10.3 50.6 59 2.6 36.7
06:25 1018 30.06 847 25.01 10.4 50.7 58 2.5 36.4
06:30 1018 30.06 847 25.01 10.3 50.6 59 2.8 37
06:35 1018 30.06 847 25.01 10.2 50.3 58 2.4 36.3
06:40 1018 30.06 847 25.01 10.2 50.4 58 2.4 36.3
06:45 1018 30.06 847 25.01 10.2 50.3 59 2.4 36.4
06:50 1018 30.06 847 25.01 10.1 50.2 59 2.5 36.4
06:55 1018 30.06 847 25.01 10.1 50.2 60 2.6 36.7
07:00 1018 30.06 847 25.01 10.1 50.2 59 2.4 36.4
07:05 1018 30.06 847 25.01 10.1 50.2 59 2.4 36.3
07:10 1018 30.06 847 25.01 10.3 50.5 56 1.9 35.5
07:15 1018 30.06 847 25.01 10.5 50.9 55 1.8 35.3
07:20 1018 30.06 847 25.01 10.6 51.1 55 1.9 35.4
07:25 1018 30.06 847 25.01 10.7 51.2 55 2 35.6
07:30 1018 30.06 847 25.01 10.9 51.5 53 1.7 35
07:35 1018 30.06 847 25.01 11 51.7 54 2.1 35.9
07:40 1018 30.06 847 25.01 11 51.8 59 3.3 37.9
07:45 1018 30.06 847 25.01 11.2 52.2 55 2.5 36.6
07:50 1018 30.06 847 25.01 11.7 53 56 3.3 38
07:55 1018 30.06 847 25.01 11.6 52.8 59 3.8 38.9
08:00 1018 30.06 847 25.01 11.1 52 58 3.3 38
08:05 1018 30.06 847 25.01 11.1 52.1 62 4.1 39.4
08:10 1018 30.06 847 25.01 11 51.9 65 4.7 40.4
08:15 1018 30.06 847 25.01 10.7 51.3 65 4.4 39.9
08:20 1018 30.06 847 25.01 10.7 51.2 64 4.1 39.5
08:25 1018 30.06 847 25.01 10.6 51 57 2.5 36.6
08:30 1018 30.06 847 25.01 10.8 51.4 51 1.1 34.1
08:35 1018 30.06 847 25.01 11.4 52.5 60 3.9 39.1
08:40 1018 30.06 847 25.01 11.4 52.6 63 4.6 40.3
08:45 1018 30.06 847 25.01 11.6 52.8 60 4.1 39.4
08:50 1018 30.06 847 25.01 11.7 53.1 55 3.1 37.6
08:55 1018 30.06 847 25.01 11.9 53.4 54 2.9 37.3
09:00 1018 30.06 847 25.01 12.3 54.1 50 2.2 36
09:05 1018 30.06 847 25.01 12.4 54.4 50 2.4 36.2
09:10 1018 30.06 847 25.01 12.5 54.6 48 1.8 35.2
09:15 1018 30.06 847 25.01 12.6 54.7 47 1.8 35.2
09:20 1018 30.06 848 25.04 12.8 55 50 2.6 36.7
09:25 1018 30.06 847 25.01 13 55.3 52 3.3 37.9
09:30 1018 30.06 847 25.01 13 55.5 47 2.1 35.7
09:35 1018 30.06 847 25.01 13 55.4 48 2.2 36
09:40 1018 30.06 847 25.01 13 55.5 50 2.8 37
09:45 1018 30.06 847 25.01 13.1 55.6 47 2.2 36
09:50 1018 30.06 847 25.01 13.3 55.9 52 3.8 38.8
09:55 1018 30.06 848 25.04 13.2 55.7 51 3.3 38
10:00 1019 30.09 848 25.04 13.3 56 52 3.6 38.5
10:05 1019 30.09 848 25.04 13.5 56.3 48 2.7 36.9
10:10 1019 30.09 848 25.04 13.6 56.5 47 2.6 36.7
10:15 1019 30.09 848 25.04 14 57.1 46 2.6 36.7
10:20 1019 30.09 848 25.04 14.3 57.8 42 1.5 34.8
10:25 1019 30.09 848 25.04 14.5 58 41 1.4 34.5
10:30 1019 30.09 848 25.04 14.8 58.6 39 1.2 34.2
10:35 1019 30.09 848 25.04 15.1 59.2 39 1.5 34.7
10:40 1019 30.09 848 25.04 15.3 59.5 39 1.5 34.7
10:45 1019 30.09 848 25.04 15.4 59.6 38 1.4 34.5
10:50 1019 30.09 848 25.04 15.8 60.5 36 0.9 33.6
10:55 1019 30.09 848 25.04 16.3 61.4 34 0.6 33
11:00 1019 30.09 848 25.04 15.6 60.1 36 0.9 33.6
11:05 1019 30.09 848 25.04 15.4 59.7 37 0.8 33.4
11:10 1019 30.09 848 25.04 15.7 60.3 38 1.4 34.4
11:15 1018 30.06 848 25.04 15.9 60.5 37 1.2 34.2
11:20 1018 30.06 848 25.04 16.1 61.1 37 1.6 34.9
11:25 1018 30.06 848 25.04 16.2 61.1 37 1.5 34.7
11:30 1018 30.06 848 25.04 16.4 61.6 36 1.4 34.6
11:35 1018 30.06 847 25.01 15.8 60.5 38 1.7 35
11:40 1018 30.06 847 25.01 16 60.9 36 1.2 34.2
11:45 1018 30.06 847 25.01 16.7 62 34 1 33.9
11:50 1018 30.06 847 25.01 16.5 61.7 36 1.5 34.7
11:55 1018 30.06 847 25.01 17.4 63.3 33 1.1 33.9
12:00 1018 30.06 847 25.01 17.9 64.2 32 1.2 34.2
12:05 1018 30.06 847 25.01 18 64.3 32 1.3 34.3
12:10 1018 30.06 847 25.01 17.6 63.7 33 1.5 34.6
12:15 1018 30.06 847 25.01 17.1 62.8 35 1.7 35
12:20 1018 30.06 847 25.01 17.4 63.4 33 1.3 34.3
12:25 1018 30.06 847 25.01 17.2 62.9 33 0.8 33.4
12:30 1018 30.06 847 25.01 17.8 64 32 1 33.8
12:35 1018 30.06 847 25.01 18.7 65.6 31 1.4 34.6
12:40 1018 30.06 847 25.01 18.3 65 33 1.9 35.4
12:45 1018 30.06 847 25.01 17.7 63.9 33 1.3 34.4
12:50 1018 30.06 847 25.01 17.5 63.6 34 1.7 35.1
12:55 1018 30.06 847 25.01 17.3 63.2 34 1.4 34.5
13:00 1018 30.06 847 25.01 17.2 63 33 0.7 33.3
13:05 1018 30.06 847 25.01 17.3 63.1 32 0.4 32.8
13:10 1017 30.03 847 25.01 17.5 63.4 31 0.3 32.5
13:15 1017 30.03 847 25.01 17.6 63.6 30 -0.1 31.8
13:20 1017 30.03 847 25.01 17.7 63.8 31 0.4 32.8
13:25 1017 30.03 847 25.01 17.6 63.8 31 0.4 32.6
13:30 1017 30.03 847 25.01 17.9 64.3 29 -0.1 31.8
13:35 1017 30.03 847 25.01 18.4 65.2 28 -0.3 31.5
13:40 1017 30.03 847 25.01 19 66.2 26 -1.1 30.1
13:45 1017 30.03 847 25.01 19.3 66.7 25 -1.2 29.8
13:50 1017 30.03 847 25.01 19.3 66.7 24 -1.4 29.5
13:55 1017 30.03 847 25.01 19.1 66.3 23 -2.5 27.6
14:00 1017 30.03 847 25.01 19.1 66.4 21 -3.7 25.3
14:05 1017 30.03 847 25.01 19.4 66.8 22 -2.5 27.4
14:10 1017 30.03 847 25.01 19 66.3 22 -2.9 26.8
14:15 1017 30.03 847 25.01 18.8 65.9 23 -2.7 27.2
14:20 1017 30.03 847 25.01 18.8 65.9 23 -2.8 27
14:25 1017 30.03 847 25.01 18.9 66.1 24 -2 28.3
14:30 1017 30.03 847 25.01 18.8 65.9 24 -2.3 27.9
14:35 1017 30.03 847 25.01 18.7 65.7 23 -2.9 26.9
14:40 1017 30.03 847 25.01 18.8 65.9 22 -3.1 26.4
14:45 1017 30.03 846 24.98 18.9 65.9 21 -3.8 25.1
14:50 1017 30.03 846 24.98 18.6 65.5 21 -3.7 25.3
14:55 1017 30.03 847 25.01 18.6 65.4 22 -3.6 25.6
15:00 1017 30.03 846 24.98 18.5 65.3 22 -3.7 25.3
15:05 1017 30.03 847 25.01 18.5 65.2 22 -3.4 25.9
15:10 1017 30.03 847 25.01 18.5 65.4 21 -4.2 24.5
15:15 1017 30.03 846 24.98 18.7 65.7 20 -4.4 24.1
15:20 1017 30.03 846 24.98 18.7 65.7 20 -4.3 24.2
15:25 1017 30.03 846 24.98 18.9 65.9 19 -5 23.1
15:30 1017 30.03 846 24.98 19.2 66.6 17 -6.4 20.6
15:35 1017 30.03 846 24.98 19.2 66.5 16 -7.4 18.7
15:40 1017 30.03 846 24.98 19.5 67 17 -6 21.2
15:45 1017 30.03 846 24.98 19.6 67.2 15 -7.4 18.6
15:50 1017 30.03 846 24.98 19.2 66.6 16 -7.5 18.5
15:55 1017 30.03 846 24.98 19.1 66.3 17 -6.3 20.7
16:00 1017 30.03 846 24.98 19 66.2 17 -6.1 21
16:05 1017 30.03 846 24.98 19.1 66.3 18 -6 21.1
16:10 1017 30.03 846 24.98 19.3 66.7 17 -5.9 21.4
16:15 1017 30.03 846 24.98 19.3 66.7 17 -6.2 20.8
16:20 1017 30.03 846 24.98 19.4 66.9 17 -6.1 21
16:25 1017 30.03 846 24.98 19.4 66.8 18 -5.8 21.6
16:30 1017 30.03 846 24.98 19.4 66.9 18 -5.4 22.3
16:35 1017 30.03 846 24.98 19.6 67.3 16 -7.2 19.1
16:40 1017 30.03 846 24.98 19.4 66.9 17 -6.2 20.8
16:45 1017 30.03 846 24.98 19.7 67.5 16 -6.9 19.7
16:50 1017 30.03 846 24.98 19.9 67.8 16 -6.8 19.8
16:55 1017 30.03 846 24.98 20.1 68.1 15 -7.4 18.6
17:00 1017 30.03 846 24.98 20.1 68.1 15 -7 19.5
17:05 1017 30.03 847 25.01 20.2 68.3 15 -7.2 19
17:10 1017 30.03 847 25.01 19.6 67.3 22 -2.7 27.1
17:15 1018 30.06 847 25.01 18.2 64.8 24 -2.6 27.3
17:20 1018 30.06 847 25.01 18.4 65 23 -3.2 26.3
17:25 1018 30.06 847 25.01 18.2 64.7 26 -1.4 29.5
17:30 1018 30.06 847 25.01 17.6 63.7 26 -1.9 28.6
17:35 1018 30.06 847 25.01 17.8 64 24 -2.8 26.9
17:40 1018 30.06 847 25.01 17.7 63.8 24 -2.8 27
17:45 1018 30.06 847 25.01 17.3 63.2 24 -3.2 26.3
17:50 1018 30.06 847 25.01 17.5 63.4 24 -3.1 26.3
17:55 1018 30.06 847 25.01 17.5 63.5 25 -2.8 26.9
18:00 1018 30.06 847 25.01 17.4 63.4 25 -2.5 27.6
18:05 1018 30.06 847 25.01 17.4 63.3 25 -2.6 27.3
18:10 1018 30.06 847 25.01 17.1 62.8 26 -2.3 27.8
18:15 1018 30.06 847 25.01 16.6 61.9 27 -2.2 28.1
18:20 1018 30.06 848 25.04 16.5 61.7 27 -2.5 27.6
18:25 1018 30.06 848 25.04 16.3 61.3 27 -2.7 27.2
18:30 1018 30.06 848 25.04 16.1 61 27 -2.6 27.3
18:35 1019 30.09 848 25.04 16.1 60.9 28 -2.6 27.3
18:40 1019 30.09 848 25.04 16 60.7 27 -2.9 26.7
18:45 1019 30.09 848 25.04 15.8 60.4 28 -2.7 27.2
18:50 1019 30.09 848 25.04 15.7 60.3 27 -3.2 26.3
18:55 1019 30.09 848 25.04 15.6 60.1 28 -3 26.6
19:00 1019 30.09 848 25.04 15.6 60 28 -3 26.6
19:05 1019 30.09 848 25.04 15.5 59.9 27 -3.1 26.4
19:10 1019 30.09 848 25.04 15.5 59.8 28 -2.7 27.1
19:15 1019 30.09 848 25.04 15.4 59.6 28 -3.1 26.4
19:20 1019 30.09 849 25.07 15.2 59.4 28 -3 26.6
19:25 1020 30.12 849 25.07 15.2 59.3 28 -3 26.5
19:30 1020 30.12 849 25.07 15.1 59.2 29 -2.6 27.3
19:35 1020 30.12 849 25.07 14.9 58.8 29 -2.8 26.9
19:40 1020 30.12 849 25.07 14.7 58.5 29 -2.9 26.7
19:45 1020 30.12 849 25.07 14.5 58.1 30 -2.9 26.7
19:50 1020 30.12 849 25.07 14.3 57.7 30 -3 26.6
19:55 1020 30.12 849 25.07 14.1 57.4 31 -2.7 27.2
20:00 1020 30.12 849 25.07 13.9 57.1 31 -3.1 26.5
20:05 1020 30.12 849 25.07 13.8 56.8 31 -2.9 26.8
20:10 1020 30.12 849 25.07 13.6 56.5 32 -2.9 26.9
20:15 1020 30.12 849 25.07 13.4 56.1 32 -2.9 26.8
20:20 1020 30.12 849 25.07 13.3 55.9 32 -3.1 26.3
20:25 1020 30.12 849 25.07 13.2 55.8 32 -3 26.5
20:30 1020 30.12 849 25.07 13.1 55.5 32 -3.1 26.3
20:35 1020 30.12 850 25.1 13 55.3 33 -3 26.7
20:40 1021 30.15 850 25.1 12.8 55.1 33 -3 26.6
20:45 1021 30.15 850 25.1 12.7 54.8 34 -2.8 27
20:50 1021 30.15 850 25.1 12.4 54.3 35 -2.4 27.6
20:55 1021 30.15 850 25.1 12.1 53.7 36 -2.4 27.6
21:00 1021 30.15 850 25.1 11.9 53.4 37 -2.3 27.8
21:05 1021 30.15 850 25.1 11.8 53.2 36 -2.7 27.2
21:10 1021 30.15 850 25.1 11.7 53 36 -2.8 27
21:15 1021 30.15 850 25.1 11.6 52.9 37 -2.6 27.2
21:20 1021 30.15 850 25.1 11.6 52.8 37 -2.7 27.1
21:25 1021 30.15 850 25.1 11.5 52.7 37 -2.7 27.1
21:30 1021 30.15 850 25.1 11.4 52.5 37 -2.6 27.3
21:35 1021 30.15 850 25.1 11.2 52.2 38 -2.6 27.3
21:40 1021 30.15 850 25.1 11 51.8 38 -2.7 27.1
21:45 1021 30.15 850 25.1 10.9 51.6 38 -3 26.6
21:50 1021 30.15 850 25.1 11 51.8 37 -3.2 26.3
21:55 1021 30.15 851 25.13 11.1 52 36 -3.4 25.9
22:00 1021 30.15 851 25.13 11.2 52.1 35 -3.5 25.7
22:05 1021 30.15 851 25.13 11.3 52.3 34 -3.8 25.2
22:10 1021 30.15 851 25.13 11.4 52.5 34 -3.8 25.1
22:15 1021 30.15 851 25.13 11.4 52.5 34 -3.9 24.9
22:20 1021 30.15 851 25.13 11.4 52.5 35 -3.6 25.5
22:25 1021 30.15 851 25.13 11.3 52.4 35 -3.6 25.5
22:30 1022 30.18 851 25.13 11.3 52.4 34 -3.9 25
22:35 1022 30.18 851 25.13 11.4 52.5 34 -3.7 25.3
22:40 1022 30.18 851 25.13 11.4 52.5 33 -4.1 24.6
22:45 1022 30.18 851 25.13 11.4 52.6 33 -4.2 24.5
22:50 1022 30.18 851 25.13 11.5 52.8 34 -3.6 25.4
22:55 1022 30.18 851 25.13 11.5 52.7 34 -3.8 25.1
23:00 1022 30.18 851 25.13 11.5 52.8 33 -4.1 24.6
23:05 1022 30.18 851 25.13 11.7 53 33 -3.9 24.9
23:10 1022 30.18 851 25.13 11.4 52.5 39 -2.2 28.1
23:15 1022 30.18 851 25.13 9.8 49.6 46 -1.2 29.9
23:20 1022 30.18 851 25.13 8.9 48 48 -1.5 29.3
23:25 1022 30.18 851 25.13 8.7 47.7 49 -1.4 29.4
23:30 1022 30.18 851 25.13 8.6 47.5 47 -2.1 28.2
23:35 1022 30.18 851 25.13 8.9 48.1 47 -1.7 28.9
23:40 1022 30.18 851 25.13 8.8 47.8 48 -1.7 28.9
23:45 1022 30.18 851 25.13 8.7 47.7 48 -1.7 28.9
23:50 1022 30.18 851 25.13 8.8 47.9 47 -1.8 28.8
23:55 1022 30.18 851 25.13 8.7 47.7 48 -1.6 29.2
24:00 1022 30.18 851 25.13 8.4 47.2 53 -0.6 30.8